Regional Weather Roundup
Issued by NWS

Home | Current Version | Previous Version | Text Only | Print | Product List | Glossary Off
Versions: 1 2 3 4 5 6 7 8 9 10 11 12 13 14 15 16 17 18 19 20 21 22 23 24 25 26 27 28 29 30 31 32 33 34 35 36 37 38 39 40 41 42 43 44 45 46 47 48 49 50

000
ASUS43 KMPX 171901
RWRMN
WEATHER ROUNDUP FOR MINNESOTA
NATIONAL WEATHER SERVICE TWIN CITIES/CHANHASSEN MN
200 PM CDT TUE OCT 17 2017


NOTE: "FAIR" INDICATES FEW OR NO CLOUDS BELOW 12,000 FEET WITH NO
SIGNIFICANT WEATHER AND/OR OBSTRUCTIONS TO VISIBILITY. N/A MEANS
CURRENT SKY AND/OR WEATHER CONDITIONS ARE NOT AVAILABLE.

MNZ060>063-068>070-172000-
   Twin Cities Metro

CITY           SKY/WX    TMP DP  RH WIND       PRES   REMARKS
TWIN CITIES    MOSUNNY   68  46  45 SW6       29.98F
ST PAUL        SUNNY     69  47  45 S6        29.98F
CRYSTAL        SUNNY     68  45  43 VRB7      29.96F
BLAINE         MOSUNNY   70  46  43 S7        29.97F
LAKEVILLE      SUNNY     70  45  40 W3        29.98F
EDEN PRAIRIE   SUNNY     70  46  42 CALM      29.97F
SOUTH ST PAUL  SUNNY     69  44  41 SW7       29.98F
LAKE ELMO      FAIR      66  46  48 SW7       29.99F
$$
MNZ001>005-007-008-013>017-022>024-027-028-172000-
   Northwest Minnesota

CITY           SKY/WX    TMP DP  RH WIND       PRES   REMARKS
BEMIDJI        SUNNY     68  37  31 SW12G18   29.87F
HALLOCK        SUNNY     72  34  25 S17       29.72F
ROSEAU         SUNNY     70  39  32 S20       29.76F
WARROAD        SUNNY     70  43  37 S14       29.78F
CROOKSTON      SUNNY     70  37  30 S23       29.80F
FOSSTON        SUNNY     70  34  26 S14       29.86F
DETROIT LAKES  CLOUDY    68  37  32 SW13      29.90F
MOORHEAD       SUNNY     70  39  32 S13G18    29.86F
PARK RAPIDS    CLOUDY    67  38  34 SW13      29.90F
MAHNOMEN       FAIR      68  39  33 SW16      29.87F
$$
MNZ006-009>011-018-025>026-172000-
   North Central Minnesota

CITY           SKY/WX    TMP DP  RH WIND       PRES   REMARKS
BAUDETTE         N/A    N/A N/A N/A MISG      29.80F
FLAG ISLAND    SUNNY     55  46  71 S10       29.76F
INTL FALLS     SUNNY     71  35  26 SW12G20   29.84F
WASKISH        PTSUNNY   70  39  32 SW14G21   29.84F
BIG FORK       SUNNY     70  37  30 S12       29.88F
LONGVILLE      CLOUDY    70  37  30 S9G16     29.90F
GRAND RAPIDS   SUNNY     67  37  33 S14       29.92F
CRANE LAKE     SUNNY     66  34  30 SW5       29.89F
ORR            SUNNY     70  28  21 S6        29.86F
COOK           SUNNY     68  36  30 SW10G17   29.90F
WALKER         FAIR      67  38  34 SW13G18   29.89F
$$
MNZ012-019>021-037-172000-
   Northeast Minnesota

CITY           SKY/WX    TMP DP  RH WIND       PRES   REMARKS
DULUTH         MOSUNNY   67  40  37 SW13      29.93F
ELY            SUNNY     64  30  27 S10       29.91F
HIBBING        SUNNY     68  35  29 S7        29.91F
EVELETH        SUNNY     68  11  11 SW10      29.92F
DULUTH HARBOR  SUNNY     70  41  35 S10       29.93F
TWO HARBORS    SUNNY     72  46  40 S14       29.91F
SILVER BAY     SUNNY     70  43  37 S6        29.90F
GRAND MARAIS     N/A     55  48  77 W7        29.93S
G MARAIS ARPRT SUNNY     63  32  31 S7        29.94F
$$
MNZ029>031-032-039>041-046>048-054>057-064-172000-
   West Central Minnesota

CITY           SKY/WX    TMP DP  RH WIND       PRES   REMARKS
FERGUS FALLS   SUNNY     72  43  35 SW10      29.90F
MORRIS         SUNNY     72  43  35 SW10      29.92F
ALEXANDRIA     SUNNY     71  39  31 SW12      29.94F
ELBOW LAKE     FAIR      70  42  35 W13       29.91F
WADENA         CLOUDY    70  39  32 SW9       29.91F
GLENWOOD       SUNNY     70  39  32 SW14      29.94F
APPLETON       SUNNY     75  34  22 SW9       29.92F
BENSON         SUNNY     72  37  28 W9        29.95F
ORTONVILLE     SUNNY     75  37  25 W7        29.92F
MADISON        SUNNY     77  36  22 W9        29.94F
WILLMAR        FAIR      72  41  33 SW3       29.97F
$$
MNZ033>034-036-042>043-049>051-058-059-172000-
   Central Minnesota

CITY           SKY/WX    TMP DP  RH WIND       PRES   REMARKS
ST CLOUD       SUNNY     70  42  36 S14       29.94F
SAUK CENTRE    FAIR      70  40  33 S13       29.94F
PAYNESVILLE    SUNNY     71  39  31 S9        29.96F
AITKIN         MOSUNNY   64  39  39 S8        29.92F
PINE RIVER     MOSUNNY   66  39  37 SW7       29.95F
BRAINERD       CLOUDY    68  38  33 S7        29.93F
STAPLES        SUNNY     70  36  28 SW8       29.92F
LONG PRAIRIE   FAIR      68  37  32 S12       29.94F
LITTLE FALLS   SUNNY     68  28  22 SW8       29.94F
LITCHFIELD     SUNNY     73  41  31 CALM      29.97F
BUFFALO        SUNNY     68  43  40 S7        29.98F
MAPLE LAKE     SUNNY     72  46  39 S5        29.97F
HUTCHINSON     SUNNY     71  44  37 S6        29.99F
$$
MNZ037-044-045-052-053-172000-
   East Central Minnesota

CITY           SKY/WX    TMP DP  RH WIND       PRES   REMARKS
PRINCETON      SUNNY     72  43  35 S6        29.95F
MORA           SUNNY     68  41  37 S10       29.96F
CAMBRIDGE      SUNNY     72  48  43 S9        29.95F
RUSH CITY      SUNNY     68  45  42 SW7       29.95F
MOOSE LAKE     MOSUNNY   66  39  37 SW8       29.92F
HINCKLEY       FAIR      68  45  42 S7        29.94F
CLOQUET        SUNNY     66  32  28 SW8       29.94F
MCGREGOR       CLOUDY    68  36  30 S9G16     29.93F
$$
MNZ071>073-080-081-089-090-097-098-172000-
   Southwest Minnesota

CITY           SKY/WX    TMP DP  RH WIND       PRES   REMARKS
MONTEVIDEO     SUNNY     79  45  29 SW9       29.95F
GRANITE FALLS  SUNNY     76  40  27 SW9       29.97F
CANBY          SUNNY     75  34  22 SW12G20   29.97F
MARSHALL       SUNNY     74  38  27 W13       29.97F
REDWOOD FALLS  SUNNY     74  38  27 SW8       29.96F
OLIVIA         SUNNY     72  41  33 SW6       29.97F
PIPESTONE      SUNNY     73  37  27 W8        30.00F
WORTHINGTON    SUNNY     73  38  27 VRB7      30.02F
JACKSON        SUNNY     73  36  25 SW9G16    30.01F
TRACY          SUNNY     75  38  25 W7        29.99F
SLAYTON        SUNNY     72  39  30 SW10      30.01F
$$
MNZ065>067-074>077-082>085-091>093-172000-
   South Central Minnesota

CITY           SKY/WX    TMP DP  RH WIND       PRES   REMARKS
MANKATO        SUNNY     72  42  34 SW9       30.00F
NEW ULM        SUNNY     72  39  30 S5        29.98F
ST JAMES       SUNNY     75  37  25 SW9       30.00F
FAIRMONT       SUNNY     75  41  29 MISG      30.01F
GLENCOE        SUNNY     72  42  33 S9        29.97F
FARIBAULT      SUNNY     72  43  35 S7        30.00F
OWATONNA       SUNNY     73  43  33 S9        30.00F
WASECA         SUNNY     72  39  30 SW9       30.02F
ALBERT LEA     SUNNY     73  45  35 SW5       30.02F
$$
MNZ078>079-086>088-094>096-172000-
   Southeast Minnesota

CITY           SKY/WX    TMP DP  RH WIND       PRES   REMARKS
ROCHESTER      SUNNY     71  46  40 S13G20    30.02F
RED WING       SUNNY     70  41  35 CALM      29.98F
STANTON        SUNNY     72  42  34 SW8       29.98F
DODGE CENTER   SUNNY     72  39  30 S8        30.01F
WINONA         SUNNY     70  45  40 S3        30.01F
AUSTIN         SUNNY     70  43  37 S5        30.02F
PRESTON        SUNNY     68  43  41 SW10      30.04F
$$
ABBREVIATIONS USED IN REMARKS
   TC - TEMPERATURES IN CELSIUS
  WCI - WIND CHILL INDEX
   HX - HEAT INDEX
  VSB - VISIBILITY
$$




USA.gov is the U.S. government's official web portal to all federal, state and local government web resources and services.